Вернуться в каталог

CZ-6A DEB

АктивенPO
NORAD 60870·DEBRIS·🇨🇳 China

Запущен Aug 6, 2024 с Taiyuan Satellite Launch Center

Loading…

Ближайшие Пролёты (ближайшие 24 часа)

TLE

СвежийSource: Space-Track

Эпоха: Sep 14, 2026, 09:11 UTC

1 60870U 24140JZ  26257.38287635  .00000710  00000-0  35589-3 0  9997
2 60870  88.7397 242.4724 0081081 309.3289  50.0729 14.13939689107365

Отслеживайте CZ-6A DEB в реальном времени с AllMySat

Download on the App Store